Location: Malvern Link
(52.1333°N, 2.3000°W)
Time: 16:47:13
(UTC+00:00)

QB50P2 - Pass Details

Date: 07 July 2022
Orbit: 590 x 605 km, 97.9° (Epoch: 18 August)

Event Time Altitude Azimuth Distance (km) Brightness Sun altitude
Rises 02:41:57 0° 7° (N) 2,868 ? -8.6°
Reaches altitude 10° 02:44:19 10° 356° (N) 1,962 ? -8.4°
Maximum altitude 02:48:02 30° 296° (WNW) 1,104 ? -8.1°
Drops below altitude 10° 02:51:43 10° 236° (SW) 1,955 ? -7.7°
Enters shadow 02:52:01 - 234° (SW) 2,059 ? -7.7°
